[[{"header":{"parameterUnit":"m.s-1","parameterCategory":1,"la1":30.2991,"la2":30.254,"lo1":-89.0895,"lo2":-89.0444,"dy":0.0017,"dx":0.0017,"nx":28,"ny":28,"refTime":"2024-12-17T09:00:00:Z","depth":0,"parameterNumber":2,"parameterNumberName":"U-component_of_WINDS"},"data":[0,0,0,0,0,0,0,0,0,0,0,0,0,0,0,0,0,0,0,0,0,0,0,0,0,0,0,0,0,0,0,0,0,0,0,0,0,0,0,0,0,0,0,0,0,0,0,0,0,0,0,0,0,0,0,0,0,0,0.8839,0.8839,0,0.8801,0.8801,0.88,0.8752,0.8752,0.8751,0.875,0.8709,0.8709,0.8708,0,0,0,0,0,0,0,0,0,0,0,0,0,0.887,0.887,0.8839,0.8839,0.8838,0.8801,0.8801,0.88,0.8753,0.8752,0.8751,0.875,0.8709,0.8709,0.8708,0,0,0,0,0,0,0,0,0,0,0,0,0,0.8847,0.887,0.8839,0.881,0.8807,0.8801,0.8801,0.88,0.8753,0.8752,0.875,0.8749,0.8709,0.8709,0.8708,0.8728,0,0,0.8707,0.8706,0,0,0,0,0,0,0,0,0.8848,0.8846,0.8815,0.8812,0.8809,0.878,0.8797,0.8776,0.8753,0.8773,0.875,0.8749,0.8734,0.8731,0.8726,0.8726,0.8724,0.8707,0.8706,0.8706,0.8706,0,0,0,0,0,0,0,0.885,0.8847,0.8824,0.8814,0.8811,0.8799,0.8794,0.8792,0.876,0.8771,0.8768,0.8764,0.8732,0.8727,0.8725,0.8723,0.8707,0.8706,0.8706,0.8705,0.8739,0.874,0,0,0,0,0,0,0.8856,0.8849,0.8825,0.8823,0.8826,0.8799,0.8794,0.8791,0.876,0.8754,0.8765,0.8762,0.8729,0.8726,0.8723,0.8745,0.8706,0.8705,0.8705,0.8738,0.8739,0.8741,0,0,0,0,0,0,0.8857,0.8854,0.8827,0.8835,0.8831,0.88,0.8796,0.879,0.8786,0.8755,0.8749,0.8766,0.8728,0.8724,0.8728,0.8743,0.8705,0.8705,0.8736,0.8738,0.874,0.8789,0,0,0,0,0,0,0.8858,0.8855,0.8862,0.8835,0.883,0.8832,0.8797,0.8791,0.8785,0.8781,0.8755,0.8749,0.8726,0.8729,0.8727,0.8742,0.8704,0.8735,0.8737,0.874,0.8785,0.8792,0.8797,0,0,0,0,0,0.8859,0.8876,0.8862,0.886,0.8838,0.8833,0.883,0.8803,0.8786,0.8793,0.8774,0.875,0.8742,0.873,0.8727,0.8742,0.8734,0.8737,0.8739,0.8783,0.8791,0.8797,0,0,0,0,0,0,0.8903,0.8872,0.8856,0.8865,0.8852,0.8825,0.8832,0.8812,0.8803,0.8799,0.8766,0.8761,0.8769,0.8756,0.8742,0.876,0.8735,0.8737,0.8768,0.8776,0.8781,0.8784,0.8704,0,0,0,0,0,0.8914,0.8913,0.8885,0.8896,0.889,0.8863,0.8859,0.8841,0.8825,0.8819,0.88,0.8786,0.8781,0.8777,0.877,0.8784,0.8778,0.8793,0.8799,0.8804,0.8806,0.8814,0.8821,0.875,0.875,0.875,0,0,0.8936,0.8919,0.892,0.8904,0.8892,0.8891,0.8858,0.8858,0.8858,0.8819,0.8821,0.8808,0.879,0.8799,0.8802,0.8788,0.8825,0.8808,0.8812,0.8811,0.8818,0.8825,0.8831,0.8752,0.8752,0.8751,0,0,0.8976,0.8963,0.8971,0.896,0.8943,0.8925,0.8927,0.8903,0.8893,0.8895,0.8867,0.8866,0.8857,0.8846,0.8839,0.8879,0.8857,0.8877,0.8908,0.8916,0.8922,0.8927,0.8942,0.8947,0.888,0.888,0.888,0,0.9006,0.9004,0.8977,0.898,0.8975,0.8942,0.895,0.8941,0.8922,0.8919,0.8904,0.8893,0.8879,0.8886,0.8896,0.8891,0.8893,0.888,0.8923,0.8928,0.8932,0.8946,0.8952,0.8883,0.8882,0.8882,0.8882,0,0.9041,0.9041,0.905,0.9034,0.9029,0.9035,0.901,0.9008,0.8991,0.8975,0.8979,0.8961,0.8951,0.8952,0.8933,0.8957,0.8949,0.893,0.8903,0.8942,0.8955,0.896,0.8887,0.8886,0.8885,0.8884,0,0,0.9105,0.9078,0.9081,0.9075,0.9054,0.9053,0.9058,0.905,0.905,0.9039,0.9042,0.9037,0.902,0.9012,0.8993,0.9,0.9035,0.898,0.8979,0.8991,0.9061,0.9075,0.9082,0.9021,0.9022,0.9022,0.9062,0,0.9142,0.9149,0.9127,0.9139,0.9139,0.911,0.9114,0.9103,0.9089,0.9086,0.9071,0.9068,0.9045,0.904,0.9046,0.9029,0.9048,0.9026,0.9024,0.9024,0.9029,0.9088,0.9103,0.9141,0.9067,0.9068,0.9068,0,0.9184,0.9177,0.919,0.9172,0.9171,0.9176,0.9167,0.9166,0.9153,0.9142,0.9136,0.9115,0.9119,0.9095,0.91,0.9086,0.9084,0.9076,0.9077,0.9075,0.9048,0.9088,0.9153,0.9159,0.9076,0.9075,0.9074,0,0.923,0.9224,0.9232,0.9227,0.9206,0.921,0.9201,0.9187,0.9184,0.9177,0.9175,0.9168,0.9164,0.916,0.9138,0.9122,0.9147,0.912,0.9138,0.9139,0.9144,0.9144,0.9209,0.9143,0.9143,0.9143,0.9143,0,0.9273,0.9282,0.9253,0.9257,0.9268,0.9243,0.9253,0.9242,0.923,0.9232,0.9206,0.9209,0.918,0.918,0.9163,0.9171,0.9169,0.9161,0.9156,0.9163,0.9164,0.9161,0.9157,0.9145,0.9144,0.9144,0.9144,0,0.9325,0.9306,0.9312,0.9293,0.9288,0.9297,0.928,0.9284,0.9269,0.9273,0.9272,0.9249,0.9248,0.9226,0.9219,0.9208,0.9223,0.9213,0.9228,0.9225,0.9244,0.9243,0.9309,0.9317,0.9247,0.9247,0.9248,0,0.9353,0.936,0.9342,0.9342,0.9335,0.9336,0.9333,0.931,0.9309,0.9296,0.9302,0.9299,0.9295,0.9294,0.9277,0.9273,0.9263,0.9287,0.9262,0.9269,0.9263,0.9263,0.9264,0.9291,0.9292,0.9293,0.9294,0,0.9405,0.9396,0.9394,0.939,0.9388,0.9383,0.9376,0.9378,0.9353,0.9353,0.9352,0.9349,0.9344,0.9342,0.9335,0.9325,0.9306,0.9302,0.9306,0.9313,0.9321,0.9317,0.9242,0.93,0.9299,0.9299,0.9299,0.9298,0.9446,0.9452,0.9441,0.944,0.9433,0.9428,0.9432,0.9419,0.9418,0.9413,0.9399,0.9401,0.939,0.9379,0.9372,0.9374,0.9361,0.9367,0.9368,0.937,0.9374,0.9322,0.9372,0.9372,0.9372,0.9371,0.9371,0,0.9497,0.9489,0.9489,0.9482,0.9482,0.9465,0.9458,0.9459,0.9461,0.9453,0.9451,0.9451,0.9449,0.9433,0.943,0.9434,0.9425,0.9434,0.9433,0.9432,0.9385,0.9382,0.9441,0.9441,0.9441,0.9441,0.9441,0.9441,0.9524,0.9533,0.9523,0.9529,0.9521,0.9523,0.9521,0.9517,0.951,0.9512,0.9511,0.9501,0.9491,0.9487,0.9485,0.9481,0.9481,0.9493,0.9485,0.9441,0.9435,0.9428,0.9425,0.9493,0.9493,0.9532,0.9532,0.9532]},{"header":{"parameterUnit":"m.s-1","parameterCategory":1,"la1":30.2991,"la2":30.254,"lo1":-89.0895,"lo2":-89.0444,"dy":0.0017,"dx":0.0017,"nx":28,"ny":28,"refTime":"2024-12-17T09:00:00:Z","depth":0,"parameterNumber":3,"parameterNumberName":"V-component_of_WINDS"},"data":[0,0,0,0,0,0,0,0,0,0,0,0,0,0,0,0,0,0,0,0,0,0,0,0,0,0,0,0,0,0,0,0,0,0,0,0,0,0,0,0,0,0,0,0,0,0,0,0,0,0,0,0,0,0,0,0,0,0,-1.6238,-1.6238,0,-1.6308,-1.6309,-1.631,-1.6329,-1.6329,-1.6329,-1.6328,-1.6398,-1.64,-1.6402,0,0,0,0,0,0,0,0,0,0,0,0,0,-1.612,-1.6122,-1.6238,-1.6238,-1.6239,-1.6308,-1.6309,-1.631,-1.6329,-1.6329,-1.6329,-1.6328,-1.6397,-1.64,-1.6403,0,0,0,0,0,0,0,0,0,0,0,0,0,-1.6178,-1.6122,-1.6237,-1.6257,-1.626,-1.6308,-1.6309,-1.631,-1.633,-1.6329,-1.6328,-1.6328,-1.6397,-1.64,-1.6403,-1.6435,0,0,-1.6413,-1.6415,0,0,0,0,0,0,0,0,-1.6175,-1.6183,-1.6254,-1.6256,-1.6259,-1.6309,-1.6293,-1.6352,-1.633,-1.6303,-1.6328,-1.6328,-1.6369,-1.6374,-1.6389,-1.6438,-1.6441,-1.6414,-1.6416,-1.6417,-1.6418,0,0,0,0,0,0,0,-1.6171,-1.618,-1.6265,-1.6255,-1.6258,-1.6263,-1.627,-1.6304,-1.6338,-1.6305,-1.6307,-1.6315,-1.637,-1.6386,-1.6391,-1.6442,-1.6413,-1.6416,-1.6418,-1.642,-1.6524,-1.6525,0,0,0,0,0,0,-1.6164,-1.6176,-1.6263,-1.6267,-1.6215,-1.6265,-1.6274,-1.6294,-1.6338,-1.6344,-1.6316,-1.6316,-1.638,-1.6387,-1.6393,-1.6435,-1.6417,-1.642,-1.6422,-1.6523,-1.6524,-1.6525,0,0,0,0,0,0,-1.6161,-1.6171,-1.626,-1.6222,-1.6234,-1.6268,-1.629,-1.6295,-1.6311,-1.6346,-1.6352,-1.6325,-1.638,-1.6389,-1.6425,-1.6438,-1.6422,-1.6425,-1.6522,-1.6524,-1.6525,-1.6519,0,0,0,0,0,0,-1.6158,-1.617,-1.6183,-1.6223,-1.6236,-1.6291,-1.6291,-1.6297,-1.6317,-1.6318,-1.6356,-1.6362,-1.638,-1.642,-1.6429,-1.6442,-1.6427,-1.6521,-1.6523,-1.6524,-1.6518,-1.652,-1.6521,0,0,0,0,0,-1.6153,-1.6177,-1.6183,-1.6194,-1.6253,-1.6292,-1.63,-1.6321,-1.6318,-1.6331,-1.6354,-1.6361,-1.6435,-1.6424,-1.6433,-1.6448,-1.6521,-1.6522,-1.6524,-1.6517,-1.6519,-1.6521,0,0,0,0,0,0,-1.6137,-1.6183,-1.619,-1.6228,-1.6256,-1.6295,-1.6312,-1.6322,-1.6351,-1.6351,-1.6375,-1.6383,-1.6419,-1.6437,-1.6424,-1.6483,-1.6478,-1.6482,-1.647,-1.6472,-1.6473,-1.6468,-1.643,0,0,0,0,0,-1.6138,-1.6166,-1.6205,-1.6234,-1.6248,-1.6278,-1.6296,-1.631,-1.634,-1.6352,-1.6377,-1.6405,-1.6435,-1.6454,-1.6484,-1.6521,-1.653,-1.6536,-1.6537,-1.6538,-1.6541,-1.6564,-1.6568,-1.6531,-1.6531,-1.6531,0,0,-1.614,-1.6168,-1.6185,-1.6232,-1.6255,-1.6285,-1.6288,-1.6318,-1.634,-1.6356,-1.6393,-1.6412,-1.6446,-1.6483,-1.6501,-1.65,-1.6554,-1.654,-1.6541,-1.6544,-1.6566,-1.657,-1.6573,-1.6532,-1.6532,-1.6532,0,0,-1.6159,-1.6183,-1.6211,-1.6235,-1.6271,-1.6291,-1.6298,-1.6336,-1.635,-1.6388,-1.6401,-1.6427,-1.6478,-1.6502,-1.6521,-1.655,-1.6559,-1.6559,-1.6567,-1.6589,-1.6592,-1.6595,-1.6607,-1.6611,-1.6562,-1.6562,-1.6562,0,-1.6156,-1.6201,-1.6224,-1.6255,-1.6275,-1.6292,-1.6322,-1.6343,-1.6387,-1.6401,-1.6399,-1.6464,-1.6488,-1.6532,-1.654,-1.6554,-1.6563,-1.6555,-1.659,-1.6593,-1.6596,-1.6607,-1.6612,-1.6562,-1.6562,-1.6562,-1.6562,0,-1.6197,-1.6228,-1.6247,-1.629,-1.6313,-1.6342,-1.637,-1.639,-1.6403,-1.6423,-1.6462,-1.6491,-1.6527,-1.6538,-1.655,-1.6585,-1.6583,-1.6585,-1.6581,-1.6599,-1.661,-1.6615,-1.6562,-1.6562,-1.6562,-1.6562,0,0,-1.6207,-1.6264,-1.627,-1.6291,-1.6333,-1.6358,-1.6388,-1.6425,-1.6443,-1.6472,-1.6499,-1.6543,-1.6546,-1.6567,-1.6581,-1.66,-1.6624,-1.66,-1.6601,-1.6605,-1.6666,-1.6666,-1.667,-1.663,-1.6631,-1.6631,-1.6664,0,-1.6232,-1.6289,-1.6311,-1.6357,-1.6387,-1.6404,-1.6431,-1.646,-1.6479,-1.6507,-1.6529,-1.656,-1.6561,-1.6574,-1.6594,-1.6617,-1.6637,-1.6615,-1.6656,-1.6657,-1.6648,-1.6676,-1.6675,-1.6705,-1.6669,-1.6669,-1.667,0,-1.6269,-1.6301,-1.635,-1.639,-1.6403,-1.6427,-1.6464,-1.649,-1.6524,-1.6537,-1.6562,-1.6576,-1.6609,-1.6602,-1.6649,-1.6634,-1.6652,-1.6666,-1.6668,-1.6673,-1.6665,-1.6684,-1.6714,-1.6719,-1.6677,-1.6676,-1.6676,0,-1.6273,-1.6328,-1.6365,-1.6382,-1.6429,-1.6446,-1.6466,-1.6499,-1.6521,-1.6552,-1.6567,-1.6601,-1.662,-1.6647,-1.667,-1.6663,-1.6715,-1.671,-1.6728,-1.6727,-1.6738,-1.6738,-1.6774,-1.6748,-1.6748,-1.6748,-1.6748,0,-1.6299,-1.6329,-1.6368,-1.6391,-1.6425,-1.645,-1.6484,-1.6505,-1.6534,-1.6562,-1.6578,-1.6604,-1.6632,-1.6662,-1.668,-1.6717,-1.6725,-1.6737,-1.6741,-1.6736,-1.6735,-1.6749,-1.6748,-1.6749,-1.6749,-1.6748,-1.6748,0,-1.631,-1.6337,-1.6379,-1.6421,-1.6432,-1.6456,-1.6492,-1.6515,-1.6536,-1.6571,-1.6581,-1.6614,-1.6649,-1.6675,-1.672,-1.6732,-1.6773,-1.6776,-1.6762,-1.6764,-1.6781,-1.678,-1.6828,-1.6837,-1.6804,-1.6804,-1.6804,0,-1.6325,-1.6349,-1.6394,-1.6414,-1.6435,-1.6467,-1.649,-1.6516,-1.6538,-1.6579,-1.6598,-1.6635,-1.6666,-1.6722,-1.675,-1.6785,-1.6791,-1.6805,-1.6796,-1.6791,-1.6793,-1.6792,-1.6795,-1.6807,-1.6807,-1.6807,-1.6807,0,-1.635,-1.6363,-1.6395,-1.6433,-1.6459,-1.649,-1.652,-1.6536,-1.6567,-1.6592,-1.6629,-1.6654,-1.6701,-1.6738,-1.6776,-1.6797,-1.6808,-1.681,-1.6817,-1.6812,-1.6803,-1.681,-1.6767,-1.6809,-1.6809,-1.6809,-1.6809,-1.6809,-1.6365,-1.6387,-1.6424,-1.6459,-1.6485,-1.6514,-1.6539,-1.6564,-1.6596,-1.6637,-1.665,-1.6689,-1.6724,-1.6777,-1.6798,-1.6829,-1.6828,-1.6837,-1.6839,-1.6841,-1.6842,-1.6797,-1.6836,-1.6836,-1.6836,-1.6836,-1.6836,0,-1.6392,-1.6417,-1.6449,-1.6493,-1.6521,-1.653,-1.6564,-1.6588,-1.6622,-1.6653,-1.6684,-1.6728,-1.6765,-1.6796,-1.6834,-1.6853,-1.6859,-1.6862,-1.6861,-1.6866,-1.684,-1.6831,-1.6856,-1.6856,-1.6856,-1.6856,-1.6856,-1.6856,-1.641,-1.6449,-1.6467,-1.652,-1.6544,-1.6583,-1.6603,-1.663,-1.6655,-1.6704,-1.6734,-1.6755,-1.6787,-1.6828,-1.6862,-1.687,-1.6884,-1.6886,-1.6895,-1.687,-1.6868,-1.6866,-1.6858,-1.6888,-1.6888,-1.692,-1.692,-1.692]}]]